Weather in Patras

Greece     38°14′37″N   21°43′59″E
temp.,
°C
wind,
m/s
gust,
m/s
humid.,
%
clouds,
%
prec.,
mm/h
press.,
hPa
HPBL,
m
11 may, tue
tue1100:00+17ene34592 0.0 101792
03:00+16ene34591 0.0 1017115
06:00+16ene45610 0.0 1015150
09:00+19ene56540 0.0 1015282
12:00+21ne44420 0.0 1015537
15:00+21nw11475 0.0 1014412
18:00+19wsw23585 0.0 1014312
21:00+18wsw227153 0.0 101468
12 may, wed
wed1200:00+17wsw12765 0.0 101479
03:00+17sw11720 0.0 101391
06:00+16wsw22704 0.0 1012131
09:00+18wsw2268100 0.0 1012200
12:00+18wsw356877 0.0 1012367
15:00+18wsw3563100 0.0 1011398
18:00+19wsw46640 0.0 1010432
21:00+18wsw45790 0.0 1010337
13 may, thu
thu1300:00+16ssw35780 0.0 1011245
03:00+15ssw45899 0.2 1010269
06:00+15sw459151 0.2 1010332
09:00+17w348245 0.3 1011377
12:00+18w45722 0.0 1011548
15:00+18w45703 0.0 1011515
18:00+18wsw67723 0.0 1011651
21:00+17wsw67784 0.0 1012670
14 may, fri
fri1400:00+15ssw46821 0.0 1013339
03:00+15ssw34780 0.0 1013272
06:00+14sw23810 0.1 1013168
09:00+16wsw23740 0.1 1015322
12:00+17wsw34690 0.0 1016535
15:00+18wsw45600 0.0 1016601
18:00+18wsw35573 0.0 1016482
21:00+17wsw45735 0.0 1016288
15 may, sat
sat1500:00+16ssw12652 0.0 1017150
03:00+16sse016792 0.0 101695
06:00+16sw0161100 0.0 101579
09:00+18n11500 0.0 1014130
12:00+18wsw235368 0.0 1015343
15:00+20w3749100 0.0 1013676
18:00+21sw61049100 0.0 1011562
21:00+18sw71170100 0.3 1010903